SCP
0 0 0 0 0 0 0 0 0 0 0 0 0 0 0 0 0 0 0 0 0 0
0 0 0 0 0 0 0 0 0 0 0 0 0 0 0 0 0 0 0 0 0 0
0 0 0 0 0 0 0 0 0 0 0 0 0 0 0 0 0 0 0 0 0 0
0 0 0 0 0 0 0 0 0 0 0 0 0 0 0 0 0 0 0 0 0 0
0 0 0 0 0 0 0 0 0 0 0 0 0 0 0 0 0 0 0 0 0 0
0 0 0 0 0 0 0 0 0 0 0 0 0 0 0 0 0 0 0 0 0 0
0 0 0 0 0 0 0 0 0 0 0 0 0 0 0 0 0 0 0 0 0 0
0 0 0 0 0 0 0 0 0 0 0 0 0 0 0 0 0 0 0 0 0 0
0 0 0 0 0 0 0 0 0 0 0 0 0 0 0 0 0 0 0 0 0 0
0 0 0 0 0 0 0 0 0 0 0 0 0 0 0 0 0 0 0 0 0 0
0 0 0 0 0 0 0 0 0 0 0 0 0 0 0 0 0 0 0 0 0 0
0 0 0 0 0 0 0 0 0 0 0 0 0 0 0 0 0 0 0 0 0 0
0 0 0 0 0 0 0 0 0 0 0 0 0 0 0 0 0 0 0 0 0 0
0 0 0 0 0 0 0 0 0 0 0 0 0 0 0 0 0 0 0 0 0 0
Wind_Speed_500mb
57 56 56 51 47 47 44 42 41 40 39 37 37 35 32 31 29 28 26 25 25 25
51 50 48 47 46 47 47 45 42 41 40 39 36 35 35 33 31 29 28 27 27 27
43 44 44 46 48 49 47 45 44 44 44 43 41 40 39 37 35 33 32 32 32 31
43 44 47 49 50 49 49 49 50 49 49 48 46 44 42 40 39 38 38 38 38 37
45 46 49 50 53 53 54 56 56 55 55 53 48 47 46 45 44 45 43 41 39 38
49 53 54 57 59 60 62 62 60 58 55 53 54 52 51 51 47 46 45 43 43 41
59 62 62 62 65 67 67 65 62 60 60 61 59 58 55 51 50 49 48 45 43 42
70 69 68 66 68 68 69 68 68 68 67 64 63 60 57 53 50 49 48 46 47 46
73 75 79 75 71 73 75 74 75 75 72 69 65 63 56 54 54 53 52 51 50 47
80 81 80 81 82 82 79 78 79 79 75 72 67 65 60 57 56 55 53 52 51 47
85 86 84 85 87 87 86 84 81 78 74 72 69 67 63 58 56 54 53 52 48 47
80 82 86 93 95 93 90 87 85 81 77 73 70 67 62 55 55 55 53 50 49 50
73 82 88 92 92 89 89 88 86 82 78 72 68 65 61 55 57 53 53 53 52 49
66 67 72 79 82 81 80 79 82 80 77 73 66 66 65 58 56 56 56 54 54 51
Wind_Direction_500mb
245 242 245 250 255 257 252 245 240 234 231 231 235 236 239 244 248 250 254 259 264 269
245 245 249 253 253 250 246 242 235 232 233 234 235 239 243 247 249 254 258 260 261 268
249 250 252 252 250 246 242 237 234 235 234 234 238 242 246 248 251 254 255 257 260 265
251 252 251 249 246 242 239 236 236 236 236 238 241 243 245 248 251 254 255 255 257 260
254 252 253 250 244 241 238 237 237 238 239 241 244 246 247 249 250 251 253 257 260 262
253 253 252 247 243 239 237 238 240 242 245 247 247 246 246 248 252 255 257 258 260 262
256 254 252 249 246 243 243 244 245 246 247 247 247 247 248 250 252 254 257 258 259 258
263 259 257 256 253 250 249 249 249 249 249 249 249 249 251 252 254 254 254 253 252 250
264 262 258 255 253 250 249 249 249 249 250 250 251 252 252 251 250 250 249 248 248 249
266 261 257 254 252 251 249 249 249 248 248 249 251 251 249 247 247 247 246 246 246 245
270 264 263 260 257 253 251 250 250 251 250 250 250 251 248 246 245 245 244 245 245 246
275 267 264 266 263 257 254 252 251 250 249 248 249 250 249 244 242 240 240 243 243 242
272 267 265 264 264 262 256 252 250 249 248 249 249 250 248 242 238 239 241 239 237 240
285 275 268 265 264 262 258 254 251 248 246 246 244 245 245 243 239 239 238 237 235 234
Wind_Speed_850mb
57 56 56 51 47 47 44 42 41 40 39 37 37 35 32 31 29 28 26 25 25 25
51 50 48 47 46 47 47 45 42 41 40 39 36 35 35 33 31 29 28 27 27 27
43 44 44 46 48 49 47 45 44 44 44 43 41 40 39 37 35 33 32 32 32 31
43 44 47 49 50 49 49 49 50 49 49 48 46 44 42 40 39 38 38 38 38 37
45 46 49 50 53 53 54 56 56 55 55 53 48 47 46 45 44 45 43 41 39 38
49 53 54 57 59 60 62 62 60 58 55 53 54 52 51 51 47 46 45 43 43 41
59 62 62 62 65 67 67 65 62 60 60 61 59 58 55 51 50 49 48 45 43 42
70 69 68 66 68 68 69 68 68 68 67 64 63 60 57 53 50 49 48 46 47 46
73 75 79 75 71 73 75 74 75 75 72 69 65 63 56 54 54 53 52 51 50 47
80 81 80 81 82 82 79 78 79 79 75 72 67 65 60 57 56 55 53 52 51 47
85 86 84 85 87 87 86 84 81 78 74 72 69 67 63 58 56 54 53 52 48 47
80 82 86 93 95 93 90 87 85 81 77 73 70 67 62 55 55 55 53 50 49 50
73 82 88 92 92 89 89 88 86 82 78 72 68 65 61 55 57 53 53 53 52 49
66 67 72 79 82 81 80 79 82 80 77 73 66 66 65 58 56 56 56 54 54 51
Wind_Direction_850mb
245 242 245 250 255 257 252 245 240 234 231 231 235 236 239 244 248 250 254 259 264 269
245 245 249 253 253 250 246 242 235 232 233 234 235 239 243 247 249 254 258 260 261 268
249 250 252 252 250 246 242 237 234 235 234 234 238 242 246 248 251 254 255 257 260 265
251 252 251 249 246 242 239 236 236 236 236 238 241 243 245 248 251 254 255 255 257 260
254 252 253 250 244 241 238 237 237 238 239 241 244 246 247 249 250 251 253 257 260 262
253 253 252 247 243 239 237 238 240 242 245 247 247 246 246 248 252 255 257 258 260 262
256 254 252 249 246 243 243 244 245 246 247 247 247 247 248 250 252 254 257 258 259 258
263 259 257 256 253 250 249 249 249 249 249 249 249 249 251 252 254 254 254 253 252 250
264 262 258 255 253 250 249 249 249 249 250 250 251 252 252 251 250 250 249 248 248 249
266 261 257 254 252 251 249 249 249 248 248 249 251 251 249 247 247 247 246 246 246 245
270 264 263 260 257 253 251 250 250 251 250 250 250 251 248 246 245 245 244 245 245 246
275 267 264 266 263 257 254 252 251 250 249 248 249 250 249 244 242 240 240 243 243 242
272 267 265 264 264 262 256 252 250 249 248 249 249 250 248 242 238 239 241 239 237 240
285 275 268 265 264 262 258 254 251 248 246 246 244 245 245 243 239 239 238 237 235 234